This is the latest recevied weather packets stored in our database for station/object N6ZHV-13. If no packets are shown the sender has not sent any weather packets the latest 10 day(s).
| Time | Temp. | Humidity | Pressure | Rain* | Wind** | Luminosity | Snow |
|---|---|---|---|---|---|---|---|
| 1777932293 | 18.33° C | 56% | 1016.7 hPa | 0 mm | - | - | - |
| 1777931993 | 18.33° C | 58% | 1016.8 hPa | 0 mm | - | - | - |
| 1777931693 | 18.33° C | 54% | 1016.8 hPa | 0 mm | - | - | - |
| 1777931393 | 18.33° C | 53% | 1016.7 hPa | 0 mm | - | - | - |
| 1777931093 | 18.89° C | 52% | 1016.8 hPa | 0 mm | - | - | - |
| 1777930793 | 18.33° C | 50% | 1016.8 hPa | 0 mm | - | - | - |
| 1777930493 | 18.89° C | 51% | 1016.9 hPa | 0 mm | - | - | - |
| 1777930193 | 18.89° C | 50% | 1017 hPa | 0 mm | - | - | - |
| 1777929893 | 19.44° C | 49% | 1017.1 hPa | 0 mm | - | - | - |
| 1777929593 | 18.89° C | 52% | 1017.2 hPa | 0 mm | - | - | - |
| 1777929293 | 18.89° C | 54% | 1017.3 hPa | 0 mm | - | - | - |
| 1777928993 | 18.33° C | 54% | 1017.4 hPa | 0 mm | - | - | - |
| 1777928693 | 18.33° C | 53% | 1017.4 hPa | 0 mm | - | - | - |
| 1777928393 | 18.89° C | 51% | 1017.4 hPa | 0 mm | - | - | - |
| 1777928093 | 18.33° C | 53% | 1017.4 hPa | 0 mm | - | - | - |
| 1777927793 | 18.89° C | 51% | 1017.3 hPa | 0 mm | - | - | - |
| 1777927493 | 18.33° C | 51% | 1017.4 hPa | 0 mm | - | - | - |
| 1777927193 | 18.33° C | 51% | 1017.5 hPa | 0 mm | - | - | - |
| 1777926893 | 18.33° C | 51% | 1017.5 hPa | 0 mm | - | - | - |
| 1777926593 | 18.33° C | 52% | 1017.5 hPa | 0 mm | - | - | - |
| 1777926293 | 18.89° C | 50% | 1017.6 hPa | 0 mm | - | - | - |
| 1777925993 | 18.33° C | 53% | 1017.7 hPa | 0 mm | - | - | - |
| 1777925693 | 17.78° C | 53% | 1017.7 hPa | 0 mm | - | - | - |
| 1777925393 | 18.33° C | 52% | 1017.7 hPa | 0 mm | - | - | - |
| 1777925093 | 18.33° C | 54% | 1017.7 hPa | 0 mm | - | - | - |
* Rain latest hour (hover to see other rain measurements)
** Current wind speed in m/s (hover to see current wind gust speed)